This demonstration page uses our WeatherBlox Daily Observations layout. Learn more.

Left ArrowRight Arrow

38.88101, -77.10428

Hourly Observations for January 5, 2021

Temp ( °F °C ) Dew Point ( °F °C ) Humidity (%) Winds ( mph kmh ) Pressure ( in mb ) Visibility ( mi km ) Precip ( " mm )
12:52 am 00:52 Cloudy 42 5.6 34 1.1 73 73 Calm 29.95 1014 10 16 0.00 0.00
1:52 am 01:52 Cloudy 41 5 36 2.2 82 82 S 5 7 29.95 1014 10 16 0.00 0.00
2:52 am 02:52 Cloudy 40 4.4 36 2.2 86 86 SSW 3 6 29.94 1014 10 16 0.00 0.00
3:52 am 03:52 Cloudy 41 5 36 2.2 82 82 Calm 29.93 1014 10 16 0.00 0.00
4:52 am 04:52 Cloudy 41 5 35 1.7 79 79 Calm 29.94 1014 10 16 0.00 0.00
5:52 am 05:52 Cloudy 42 5.6 33 0.6 71 71 W 6 9 29.94 1014 10 16 0.00 0.00
6:00 am 06:00 Cloudy with Drizzle 42 5.6 34 1.1 73 73 W 5 7 29.94 1014 10 16 0.00 0.00
6:29 am 06:29 Cloudy 41 5 34 1.1 76 76 WNW 6 9 29.94 1014 10 16 0.00 0.00
6:52 am 06:52 Cloudy 41 5 34 1.1 76 76 W 5 7 29.94 1014 10 16 0.00 0.00
7:52 am 07:52 Cloudy 41 5 35 1.7 79 79 W 5 7 29.95 1014 10 16 0.00 0.00
8:52 am 08:52 Cloudy 41 5 36 2.2 82 82 NNW 7 11 29.96 1014 10 16 0.00 0.00
9:03 am 09:03 Cloudy 41 5 36 2.2 82 82 NNW 8 13 29.96 1015 10 16 0.00 0.00
9:25 am 09:25 Cloudy with Light Rain 41 5 36 2.2 82 82 NNW 9 15 29.96 1015 10 16 0.00 0.00
9:52 am 09:52 Cloudy with Light Rain 41 5 35 1.7 79 79 NNW 6 9 29.96 1014 10 16 0.00 0.00
10:33 am 10:33 Cloudy 41 5 36 2.2 82 82 NNW 3 6 29.95 1014 10 16 0.00 0.00
10:52 am 10:52 Cloudy 41 5 36 2.2 82 82 NW 3 6 29.94 1014 10 16 0.00 0.00
11:52 am 11:52 Cloudy 42 5.6 36 2.2 79 79 NNW 6 9 29.92 1013 10 16 0.00 0.00
12:52 pm 12:52 Cloudy 42 5.6 36 2.2 79 79 NW 3 6 29.91 1013 10 16 0.00 0.00
1:14 pm 13:14 Cloudy 42 5.6 35 1.7 76 76 NW 6 9 29.91 1013 10 16 0.00 0.00
1:52 pm 13:52 Cloudy 43 6.1 35 1.7 74 74 WNW 8 13 29.90 1013 10 16 0.00 0.00
2:52 pm 14:52 Cloudy 43 6.1 34 1.1 71 71 NNW 8 13 29.91 1013 10 16 0.00 0.00
3:52 pm 15:52 Cloudy 42 5.6 34 1.1 73 73 NNW 10 17 29.93 1014 10 16 0.00 0.00
4:35 pm 16:35 Cloudy with Rain 39 3.9 36 2.2 89 89 NNW 14 22 29.96 1015 2 3 0.01 0.25
4:44 pm 16:44 Cloudy with Light Rain 39 3.9 36 2.2 89 89 NW 8 13 29.96 1015 3 5 0.03 0.76
5:18 pm 17:18 Cloudy 40 4.4 37 2.8 89 89 NNW 7 11 29.98 1015 9 14 0.00 0.00
5:34 pm 17:34 Cloudy 40 4.4 36 2.2 86 86 NW 8 13 29.98 1015 10 16 0.00 0.00
5:52 pm 17:52 Cloudy 40 4.4 36 2.2 86 86 NW 8 13 29.98 1015 10 16 0.00 0.00
5:54 pm 17:54 Cloudy 40 4.4 36 2.2 86 86 NNW 8 13 29.98 1015 10 16 0.00 0.00
6:00 pm 18:00 Cloudy 40 4.4 36 2.2 86 86 NW 9 15 29.99 1016 10 16 0.00 0.00
6:05 pm 18:05 Cloudy 40 4.4 36 2.2 86 86 NW 7 11 29.99 1016 10 16 0.00 0.00
6:52 pm 18:52 Cloudy 41 5 35 1.7 79 79 NW 10 17 30.00 1016 10 16 0.00 0.00
7:52 pm 19:52 Cloudy 40 4.4 35 1.7 83 83 NNW 12 19 30.01 1016 10 16 0.00 0.00
8:52 pm 20:52 Cloudy 40 4.4 35 1.7 83 83 NW 8 13 30.02 1017 10 16 0.00 0.00
9:52 pm 21:52 Cloudy 40 4.4 34 1.1 79 79 NW 13 20 30.02 1017 10 16 0.00 0.00
10:52 pm 22:52 Cloudy 40 4.4 34 1.1 79 79 NW 12 19 30.02 1017 10 16 0.00 0.00
11:52 pm 23:52 Cloudy 40 4.4 33 0.6 77 77 NW 10 17 30.03 1017 10 16 0.00 0.00

Powered by AerisWeather